Change the Weather History Date:

Tuesday, April 1, 2014

  Actual Average Record
Temperature  
Mean Temperature 60 °F 48 °F  
Max Temperature 69 °F 59 °F 77 °F (2003)
Min Temperature 50 °F 38 °F 28 °F (2011)
Degree Days  
Heating Degree Days 5 17  
Month to date heating degree days 5 17  
Since 1 July heating degree days 5321 4900  
Cooling Degree Days 0 0  
Month to date cooling degree days 0 0  
Year to date cooling degree days 0 1  
Growing Degree Days 10 (Base 50)    
Moisture  
Dew Point 36 °F    
Average Humidity 42    
Maximum Humidity 63    
Minimum Humidity 21    
Precipitation  
Precipitation 0.06 in 0.12 in 0.64 in (2007)
Month to date precipitation 0.06 0.12  
Year to date precipitation 6.00 8.30  
Sea Level Pressure  
Sea Level Pressure 29.95 in    
Wind  
Wind Speed 14 mph (WSW)    
Max Wind Speed 29 mph    
Max Gust Speed 39 mph    
Visibility 10 miles    
Events Rain    
T = Trace of Precipitation, MM = Missing Value Source: NWS Daily Summary

Daily Weather History Graph

Daily Weather History Graph

Search for Another Location

Airport or City:

Trip Planner

Search our weather history database for the weather conditions in past years. The results will help you decide how hot, cold, wet, or windy it might be!

Date:

Astronomy

Apr. 01, 2014 Rise Set
Actual Time 7:27 AM EDT 8:07 PM EDT
Civil Twilight 7:00 AM EDT 8:34 PM EDT
Nautical Twilight 6:28 AM EDT 9:06 PM EDT
Astronomical Twilight 5:55 AM EDT 9:39 PM EDT
Moon 8:30 AM EDT (4/1) 10:28 PM EDT (4/1)
Length of Visible Light 13h 34m
Length of Day
12h 39m
Waxing Crescent, 4% of the Moon is Illuminated
Apr 1
Waxing Crescent
Apr 7
First Quarter
Apr 15
Full
Apr 22
Last Quarter
Apr 29
New

Hourly Weather History & Observations

Time (EDT) Temp. Dew Point Humidity Pressure Visibility Wind Dir Wind Speed Gust Speed Precip Events Conditions
12:53 AM 59.0 °F 36.0 °F 42% 29.94 in 10.0 mi South 10.4 mph - 0.00 in Rain Light Rain
1:53 AM 55.9 °F 39.0 °F 53% 29.93 in 10.0 mi South 8.1 mph - 0.01 in   Overcast
2:53 AM 57.9 °F 37.0 °F 46% 29.92 in 10.0 mi South 12.7 mph - 0.00 in   Overcast
3:53 AM 57.0 °F 37.0 °F 47% 29.89 in 10.0 mi South 11.5 mph - N/A   Mostly Cloudy
4:53 AM 57.9 °F 36.0 °F 44% 29.87 in 10.0 mi South 13.8 mph - N/A   Overcast
5:53 AM 57.0 °F 37.0 °F 47% 29.86 in 10.0 mi South 13.8 mph - N/A   Clear
6:53 AM 55.0 °F 37.9 °F 53% 29.85 in 10.0 mi South 12.7 mph - N/A   Clear
7:53 AM 52.0 °F 39.9 °F 63% 29.88 in 10.0 mi South 11.5 mph - N/A   Clear
8:53 AM 57.9 °F 43.0 °F 58% 29.89 in 10.0 mi SW 15.0 mph - N/A   Clear
9:53 AM 61.0 °F 43.0 °F 52% 29.90 in 10.0 mi WSW 19.6 mph 29.9 mph N/A   Clear
10:53 AM 63.0 °F 43.0 °F 48% 29.92 in 10.0 mi West 23.0 mph 32.2 mph N/A   Clear
11:53 AM 63.0 °F 39.0 °F 41% 29.93 in 10.0 mi West 19.6 mph 32.2 mph N/A   Clear
12:53 PM 63.0 °F 36.0 °F 37% 29.94 in 10.0 mi West 19.6 mph 28.8 mph N/A   Clear
1:53 PM 64.9 °F 34.0 °F 32% 29.95 in 10.0 mi West 23.0 mph 31.1 mph N/A   Clear
2:53 PM 66.9 °F 33.1 °F 28% 29.96 in 10.0 mi West 19.6 mph 32.2 mph N/A   Clear
3:53 PM 68.0 °F 30.9 °F 25% 29.95 in 10.0 mi WSW 25.3 mph 29.9 mph N/A   Clear
4:53 PM 69.1 °F 30.9 °F 24% 29.96 in 10.0 mi West 18.4 mph - N/A   Clear
5:53 PM 68.0 °F 27.0 °F 21% 29.97 in 10.0 mi West 18.4 mph - N/A   Clear
6:53 PM 64.0 °F 30.0 °F 28% 30.00 in 10.0 mi West 15.0 mph - N/A   Clear
7:53 PM 60.1 °F 30.0 °F 32% 30.03 in 10.0 mi WNW 8.1 mph - N/A   Overcast
8:53 PM 59.0 °F 30.9 °F 35% 30.05 in 10.0 mi West 8.1 mph - N/A   Overcast
9:53 PM 57.9 °F 32.0 °F 37% 30.08 in 10.0 mi WNW 10.4 mph - N/A   Mostly Cloudy
10:53 PM 57.0 °F 32.0 °F 39% 30.08 in 10.0 mi West 6.9 mph - N/A   Overcast
11:53 PM 53.1 °F 37.9 °F 57% 30.06 in 10.0 mi Calm Calm - 0.02 in Rain Light Rain